Hourly Data Report for October 07, 2016

All times are specified in Local Standard Time (LST). Add 1 hour to adjust for Daylight Saving Time where and when it is observed.

CLYDE RIVER A
NUNAVUT

70°29'09.000" N
68°31'01.000" W
26.50 m
2400804
71090
YCY

Download Data

Hourly Data (October 2016)
Hourly Data Report for October 7, 2016
Temp Definition
°C
Dew Point Temp Definition
°C
Rel Hum Definition
%
Wind Dir Definition
10's deg

Wind Spd Definition
km/h
Visibility Definition
km
Stn Press Definition
kPa
Hmdx Definition


Wind Chill Definition


Weather Definition


TIME
00:00 Legend Double Dagger -0.9 -2.5 89 31 17 16.1 100.73   -6 Snow
01:00 Legend Double Dagger -0.7 -2.9 85 31 21 16.1 100.76   -6 LegendNANA
02:00 Legend Double Dagger -0.8 -2.9 86 28 17 16.1 100.80   -6 LegendNANA
03:00 Legend Double Dagger -1.0 -2.6 89 29 17 16.1 100.87   -6 Snow
04:00 Legend Double Dagger -1.3 -2.3 93 29 21 4.8 100.92   -7 Snow
05:00 Legend Double Dagger -1.3 -2.1 94 29 22 4.0 100.97   -7 Snow
06:00 Legend Double Dagger -1.3 -2.1 94 30 21 4.0 101.04   -7 Snow
07:00 Legend Double Dagger -1.0 -1.8 94 30 18 16.1 101.11   -6 Snow
08:00 Legend Double Dagger -1.0 -2.3 91 29 18 16.1 101.18   -6 Snow
09:00 Legend Double Dagger -0.7 -2.1 90 30 18 16.1 101.24   -6 Snow
10:00 Legend Double Dagger -0.7 -2.1 90 29 15 16.1 101.30   -5 Snow
11:00 Legend Double Dagger -0.8 -2.0 92 29 13 6.4 101.35   -5 Snow
12:00 Legend Double Dagger -0.8 -1.9 92 30 13 8.1 101.40   -5 Snow
13:00 Legend Double Dagger -0.8 -1.9 92 31 15 16.1 101.45   -5 Snow
14:00 Legend Double Dagger -0.9 -1.8 94 31 17 3.6 101.49   -6 Snow
15:00 Legend Double Dagger -1.1 -1.9 94 31 17 16.1 101.54   -6 Snow
16:00 Legend Double Dagger -1.0 -1.8 94 31 17 16.1 101.58   -6 Snow
17:00 Legend Double Dagger -1.0 -2.0 93 31 21 16.1 101.58   -7 Snow
18:00 Legend Double Dagger -1.1 -1.9 94 31 21 16.1 101.58   -7 Snow
19:00 Legend Double Dagger -1.0 -2.0 93 31 22 16.1 101.59   -7 Snow
20:00 Legend Double Dagger -0.9 -1.9 93 32 22 6.4 101.59   -7 Snow
21:00 Legend Double Dagger -1.1 -1.9 94 33 17 16.1 101.57   -6 Snow
22:00 Legend Double Dagger -0.6 -1.9 91 34 18 16.1 101.54   -6 LegendNANA
23:00 Legend Double Dagger -0.6 -1.9 91 1 21 16.1 101.51   -6 Snow

Notes on Data Quality.

Legend

  • E = Estimated
  • M = Missing
  • NA = Not Available
  • ‡ = Partner data that is not subject to review by the National Climate Archives
Date modified: